Station Historical Data
Daily Summary for January 25, 2017 Units:  Metric    English   Both
Next Day »
Daily Weekly Monthly Yearly Custom
  High: Low: Average:
Temperature: 4.3 °C -1.1 °C 1.2 °C
Dew Point: 2 °C -2.7 °C -0.6 °C
Humidity: 95% 78% 88%
Wind Speed: 20.9km/h 0km/h 3.9km/h
Wind Gust: 25.7km/h - -
Wind- - ESE
Pressure: 1032.1 hPa 1025.6 hPa -
Precipitation: 0 mm    
Historical Graphs
 
 
Tabular Data for January 25, 2017
Time Temperature Dew Point Pressure Wind Wind Speed Wind Gust Humidity Rainfall Rate (Hourly) solar Conditions
00:04 0 °C -0.7 °C 1025.6 hPa East 17.7 km/h 22.5 km/h 95% 0 mm 0.00 W/m2
00:09 0 °C -0.7 °C 1025.6 hPa ESE 3.2 km/h 22.5 km/h 95% 0 mm 0.00 W/m2
00:14 0 °C -0.7 °C 1025.6 hPa East 12.9 km/h 22.5 km/h 95% 0 mm 0.00 W/m2
00:19 -0.1 °C -0.8 °C 1025.6 hPa East 8 km/h 24.1 km/h 95% 0 mm 0.00 W/m2
00:24 -0.1 °C -0.8 °C 1025.6 hPa Calm   20.9 km/h 95% 0 mm 0.00 W/m2
00:29 -0.1 °C -0.8 °C 1025.6 hPa ESE 20.9 km/h 24.1 km/h 95% 0 mm 0.00 W/m2
00:34 -0.2 °C -1 °C 1025.6 hPa Calm   22.5 km/h 94% 0 mm 0.00 W/m2
00:39 -0.2 °C -1 °C 1025.6 hPa ESE 17.7 km/h 17.7 km/h 94% 0 mm 0.00 W/m2
00:44 -0.2 °C -1.1 °C 1025.6 hPa ESE 8 km/h 17.7 km/h 94% 0 mm 0.00 W/m2
00:49 -0.2 °C -1.1 °C 1026 hPa ESE 8 km/h 14.5 km/h 94% 0 mm 0.00 W/m2
00:54 -0.2 °C -1.1 °C 1025.6 hPa ESE 12.9 km/h 17.7 km/h 94% 0 mm 0.00 W/m2
00:59 -0.2 °C -1.1 °C 1025.6 hPa ESE 20.9 km/h 20.9 km/h 94% 0 mm 0.00 W/m2
01:04 -0.2 °C -1.1 °C 1026 hPa ESE 11.3 km/h 20.9 km/h 94% 0 mm 0.00 W/m2
01:09 -0.3 °C -1.1 °C 1026 hPa ESE 3.2 km/h 19.3 km/h 94% 0 mm 0.00 W/m2
01:14 -0.3 °C -1.3 °C 1025.6 hPa ESE 6.4 km/h 19.3 km/h 93% 0 mm 0.00 W/m2
01:19 -0.3 °C -1.3 °C 1025.6 hPa ESE 12.9 km/h 17.7 km/h 93% 0 mm 0.00 W/m2
01:24 -0.3 °C -1.3 °C 1025.6 hPa East 20.9 km/h 20.9 km/h 93% 0 mm 0.00 W/m2
01:29 -0.3 °C -1.3 °C 1026 hPa East 19.3 km/h 22.5 km/h 93% 0 mm 0.00 W/m2
01:34 -0.3 °C -1.3 °C 1026 hPa ESE 9.7 km/h 19.3 km/h 93% 0 mm 0.00 W/m2
01:39 -0.3 °C -1.3 °C 1026 hPa ESE 6.4 km/h 25.7 km/h 93% 0 mm 0.00 W/m2
01:44 -0.3 °C -1.3 °C 1026 hPa East 14.5 km/h 22.5 km/h 93% 0 mm 0.00 W/m2
01:49 -0.3 °C -1.4 °C 1026 hPa Calm   14.5 km/h 92% 0 mm 0.00 W/m2
01:55 -0.3 °C -1.4 °C 1026 hPa ESE 12.9 km/h 24.1 km/h 92% 0 mm 0.00 W/m2
02:00 -0.4 °C -1.6 °C 1026 hPa ESE 1.6 km/h 24.1 km/h 92% 0 mm 0.00 W/m2
02:05 -0.3 °C -1.4 °C 1026 hPa ESE 3.2 km/h 17.7 km/h 92% 0 mm 0.00 W/m2
02:10 -0.4 °C -1.6 °C 1026.3 hPa ESE 3.2 km/h 19.3 km/h 92% 0 mm 0.00 W/m2
02:15 -0.3 °C -1.4 °C 1026.3 hPa ESE 6.4 km/h 17.7 km/h 92% 0 mm 0.00 W/m2
02:20 -0.4 °C -1.6 °C 1026.3 hPa ESE 3.2 km/h 17.7 km/h 92% 0 mm 0.00 W/m2
02:25 -0.4 °C -1.6 °C 1026.3 hPa Calm   14.5 km/h 92% 0 mm 0.00 W/m2
02:30 -0.4 °C -1.6 °C 1026.3 hPa ESE 6.4 km/h 17.7 km/h 92% 0 mm 0.00 W/m2
02:35 -0.4 °C -1.7 °C 1026.3 hPa ESE 8 km/h 17.7 km/h 91% 0 mm 0.00 W/m2
02:36 -0.4 °C -1.7 °C 1026.6 hPa ESE 3.2 km/h 3.2 km/h 91% 0 mm 0.00 W/m2
02:40 -0.4 °C -1.7 °C 1026.3 hPa ESE 12.9 km/h 19.3 km/h 91% 0 mm 0.00 W/m2
02:45 -0.4 °C -1.7 °C 1026.6 hPa ESE 8 km/h 17.7 km/h 91% 0 mm 0.00 W/m2
02:50 -0.5 °C -1.8 °C 1026.6 hPa ESE 6.4 km/h 19.3 km/h 91% 0 mm 0.00 W/m2
02:55 -0.5 °C -1.8 °C 1026.6 hPa Calm   22.5 km/h 91% 0 mm 0.00 W/m2
03:00 -0.5 °C -1.8 °C 1026.6 hPa ESE 6.4 km/h 14.5 km/h 91% 0 mm 0.00 W/m2
03:06 -0.5 °C -1.8 °C 1026.6 hPa ESE 9.7 km/h 19.3 km/h 91% 0 mm 0.00 W/m2
03:11 -0.6 °C -1.8 °C 1026.6 hPa ESE 11.3 km/h 22.5 km/h 91% 0 mm 0.00 W/m2
03:16 -0.5 °C -1.8 °C 1026.6 hPa ESE 12.9 km/h 20.9 km/h 91% 0 mm 0.00 W/m2
03:21 -0.5 °C -1.8 °C 1026.6 hPa ESE 6.4 km/h 19.3 km/h 91% 0 mm 0.00 W/m2
03:26 -0.5 °C -1.8 °C 1026.6 hPa ESE 8 km/h 17.7 km/h 91% 0 mm 0.00 W/m2
03:31 -0.5 °C -1.8 °C 1027 hPa East 14.5 km/h 20.9 km/h 91% 0 mm 0.00 W/m2
03:36 -0.5 °C -1.8 °C 1027 hPa Calm   19.3 km/h 91% 0 mm 0.00 W/m2
03:41 -0.6 °C -1.8 °C 1027 hPa ESE 14.5 km/h 17.7 km/h 91% 0 mm 0.00 W/m2
03:46 -0.6 °C -2 °C 1027 hPa Calm   14.5 km/h 90% 0 mm 0.00 W/m2
03:51 -0.6 °C -2 °C 1027 hPa ESE 1.6 km/h 17.7 km/h 90% 0 mm 0.00 W/m2
03:56 -0.6 °C -2 °C 1027 hPa East 12.9 km/h 19.3 km/h 90% 0 mm 0.00 W/m2
04:01 -0.6 °C -2.1 °C 1027 hPa East 3.2 km/h 3.2 km/h 90% 0 mm 0.00 W/m2
04:06 -0.6 °C -2 °C 1027 hPa ESE 12.9 km/h 12.9 km/h 90% 0 mm 0.00 W/m2
04:11 -0.6 °C -2.1 °C 1027 hPa ESE 1.6 km/h 17.7 km/h 90% 0 mm 0.00 W/m2
04:16 -0.7 °C -2.1 °C 1027 hPa ESE 6.4 km/h 19.3 km/h 90% 0 mm 0.00 W/m2
04:21 -0.6 °C -2.1 °C 1027 hPa ESE 8 km/h 8 km/h 90% 0 mm 0.00 W/m2
04:26 -0.7 °C -2.1 °C 1027 hPa ESE 8 km/h 17.7 km/h 90% 0 mm 0.00 W/m2
04:31 -0.7 °C -2.1 °C 1027 hPa ESE 3.2 km/h 8 km/h 90% 0 mm 0.00 W/m2
04:36 -0.7 °C -2.1 °C 1027.3 hPa ESE 12.9 km/h 17.7 km/h 90% 0 mm 0.00 W/m2
04:41 -0.7 °C -2.3 °C 1027.3 hPa ESE 8 km/h 8 km/h 89% 0 mm 0.00 W/m2
04:46 -0.7 °C -2.2 °C 1027.3 hPa ESE 3.2 km/h 11.3 km/h 90% 0 mm 0.00 W/m2
04:51 -0.7 °C -2.3 °C 1027.3 hPa ESE 9.7 km/h 17.7 km/h 89% 0 mm 0.00 W/m2
04:56 -0.7 °C -2.3 °C 1027.3 hPa ESE 9.7 km/h 14.5 km/h 89% 0 mm 0.00 W/m2
05:01 -0.7 °C -2.2 °C 1027.3 hPa East 8 km/h 20.9 km/h 90% 0 mm 0.00 W/m2
05:06 -0.8 °C -2.2 °C 1027.7 hPa East 3.2 km/h 3.2 km/h 90% 0 mm 0.00 W/m2
05:11 -0.8 °C -2.2 °C 1027.7 hPa ESE 3.2 km/h 17.7 km/h 90% 0 mm 0.00 W/m2
05:16 -0.8 °C -2.2 °C 1027.7 hPa ESE 9.7 km/h 9.7 km/h 90% 0 mm 0.00 W/m2
05:21 -0.8 °C -2.2 °C 1027.7 hPa ESE 11.3 km/h 19.3 km/h 90% 0 mm 0.00 W/m2
05:26 -0.8 °C -2.2 °C 1027.7 hPa East 9.7 km/h 20.9 km/h 90% 0 mm 0.00 W/m2
05:31 -0.8 °C -2.2 °C 1027.7 hPa Calm   9.7 km/h 90% 0 mm 0.00 W/m2
05:36 -0.8 °C -2.2 °C 1028 hPa ESE 8 km/h 17.7 km/h 90% 0 mm 0.00 W/m2
05:41 -0.8 °C -2.2 °C 1028 hPa ESE 9.7 km/h 17.7 km/h 90% 0 mm 0.00 W/m2
05:46 -0.8 °C -2.4 °C 1028 hPa ESE 14.5 km/h 19.3 km/h 89% 0 mm 0.00 W/m2
05:51 -0.8 °C -2.4 °C 1028 hPa East 8 km/h 17.7 km/h 89% 0 mm 0.00 W/m2
05:56 -0.8 °C -2.4 °C 1028 hPa East 11.3 km/h 19.3 km/h 89% 0 mm 0.00 W/m2
06:01 -0.8 °C -2.4 °C 1028 hPa East 14.5 km/h 17.7 km/h 89% 0 mm 0.00 W/m2
06:06 -0.8 °C -2.4 °C 1028 hPa East 11.3 km/h 12.9 km/h 89% 0 mm 0.00 W/m2
06:11 -0.9 °C -2.5 °C 1028 hPa ESE 3.2 km/h 14.5 km/h 89% 0 mm 0.00 W/m2
06:17 -0.9 °C -2.5 °C 1028 hPa ESE 6.4 km/h 19.3 km/h 89% 0 mm 0.00 W/m2
06:22 -0.9 °C -2.5 °C 1028 hPa ESE 11.3 km/h 20.9 km/h 89% 0 mm 0.00 W/m2
06:27 -0.9 °C -2.5 °C 1028.3 hPa ESE 11.3 km/h 22.5 km/h 89% 0 mm 0.00 W/m2
06:32 -0.9 °C -2.7 °C 1028.3 hPa ESE 11.3 km/h 12.9 km/h 88% 0 mm 0.00 W/m2
06:37 -1 °C -2.7 °C 1028.3 hPa ESE 12.9 km/h 25.7 km/h 88% 0 mm 0.00 W/m2
06:42 -1 °C -2.6 °C 1028.7 hPa ESE 12.9 km/h 12.9 km/h 89% 0 mm 0.00 W/m2
06:47 -1 °C -2.7 °C 1028.7 hPa ESE 3.2 km/h 17.7 km/h 88% 0 mm 0.00 W/m2
06:52 -1 °C -2.7 °C 1028.7 hPa ESE 9.7 km/h 12.9 km/h 88% 0 mm 0.00 W/m2
06:57 -1 °C -2.7 °C 1028.7 hPa ESE 3.2 km/h 14.5 km/h 88% 0 mm 0.00 W/m2
07:02 -1 °C -2.6 °C 1028.7 hPa ESE 9.7 km/h 14.5 km/h 89% 0 mm 0.00 W/m2
07:07 -1 °C -2.6 °C 1029 hPa East 8 km/h 20.9 km/h 89% 0 mm 0.00 W/m2
07:12 -1.1 °C -2.6 °C 1029 hPa ESE 8 km/h 20.9 km/h 89% 0 mm 5.00 W/m2
07:17 -1.1 °C -2.6 °C 1029 hPa ESE 14.5 km/h 17.7 km/h 89% 0 mm 7.00 W/m2
07:22 -1.1 °C -2.6 °C 1029 hPa ESE 9.7 km/h 17.7 km/h 89% 0 mm 11.00 W/m2
07:27 -1.1 °C -2.6 °C 1029 hPa ESE 11.3 km/h 12.9 km/h 89% 0 mm 16.00 W/m2
07:32 -1.1 °C -2.6 °C 1029 hPa ESE 9.7 km/h 14.5 km/h 89% 0 mm 25.00 W/m2
07:37 -1 °C -2.6 °C 1029 hPa ESE 12.9 km/h 20.9 km/h 89% 0 mm 28.00 W/m2
07:42 -1 °C -2.6 °C 1029 hPa East 11.3 km/h 19.3 km/h 89% 0 mm 26.00 W/m2
07:47 -1 °C -2.6 °C 1029.3 hPa ESE 17.7 km/h 24.1 km/h 89% 0 mm 33.00 W/m2
07:52 -0.9 °C -2.5 °C 1029.3 hPa ESE 14.5 km/h 19.3 km/h 89% 0 mm 47.00 W/m2
07:57 -0.9 °C -2.5 °C 1029.3 hPa ESE 12.9 km/h 17.7 km/h 89% 0 mm 65.00 W/m2
08:02 -0.8 °C -2.4 °C 1029 hPa East 17.7 km/h 20.9 km/h 89% 0 mm 72.00 W/m2
08:07 -0.8 °C -2.5 °C 1029 hPa East 9.7 km/h 14.5 km/h 88% 0 mm 81.00 W/m2
08:12 -0.7 °C -2.3 °C 1029 hPa ESE 14.5 km/h 22.5 km/h 89% 0 mm 91.00 W/m2
08:17 -0.7 °C -2.4 °C 1029 hPa ESE 11.3 km/h 12.9 km/h 88% 0 mm 93.00 W/m2
08:22 -0.7 °C -2.4 °C 1029 hPa ESE 11.3 km/h 19.3 km/h 88% 0 mm 97.00 W/m2
08:27 -0.6 °C -2.3 °C 1029.3 hPa ESE 1.6 km/h 17.7 km/h 88% 0 mm 97.00 W/m2
08:32 -0.6 °C -2.3 °C 1029.3 hPa ESE 3.2 km/h 17.7 km/h 88% 0 mm 107.00 W/m2
08:37 -0.4 °C -2.2 °C 1029.3 hPa East 3.2 km/h 19.3 km/h 88% 0 mm 116.00 W/m2
08:42 -0.4 °C -2.2 °C 1029.3 hPa East 11.3 km/h 14.5 km/h 88% 0 mm 125.00 W/m2
08:47 -0.3 °C -1.9 °C 1029.3 hPa East 8 km/h 22.5 km/h 89% 0 mm 141.00 W/m2
08:52 -0.3 °C -1.9 °C 1029.3 hPa East 3.2 km/h 12.9 km/h 89% 0 mm 155.00 W/m2
08:57 -0.2 °C -1.8 °C 1029.3 hPa East 8 km/h 11.3 km/h 89% 0 mm 172.00 W/m2
09:02 -0.2 °C -1.9 °C 1029.3 hPa Calm   19.3 km/h 88% 0 mm 188.00 W/m2
09:07 -0.1 °C -1.8 °C 1029.3 hPa ESE 8 km/h 14.5 km/h 88% 0 mm 262.00 W/m2
09:12 -0.1 °C -1.8 °C 1029.3 hPa ESE 9.7 km/h 22.5 km/h 88% 0 mm 283.00 W/m2
09:13 -0.1 °C -1.8 °C 1029.7 hPa Calm   22.5 km/h 88% 0 mm 283.00 W/m2
09:18 0.1 °C -1.7 °C 1029.7 hPa Calm   1.6 km/h 88% 0 mm 241.00 W/m2
09:23 0.1 °C -1.7 °C 1029.7 hPa ESE 8 km/h 14.5 km/h 88% 0 mm 206.00 W/m2
09:28 0.3 °C -1.4 °C 1029.7 hPa ESE 9.7 km/h 19.3 km/h 88% 0 mm 229.00 W/m2
09:33 0.3 °C -1.4 °C 1029.7 hPa ESE 11.3 km/h 19.3 km/h 88% 0 mm 281.00 W/m2
09:39 0.4 °C -1.3 °C 1029.7 hPa Calm   19.3 km/h 88% 0 mm 466.00 W/m2
09:44 0.6 °C -1.3 °C 1029.7 hPa ESE 12.9 km/h 14.5 km/h 87% 0 mm 311.00 W/m2
09:49 0.7 °C -1.2 °C 1029.7 hPa ESE 1.6 km/h 1.6 km/h 87% 0 mm 446.00 W/m2
09:54 0.8 °C -1.1 °C 1029.7 hPa Calm   17.7 km/h 87% 0 mm 241.00 W/m2
09:59 0.9 °C -1 °C 1029.7 hPa Calm   1.6 km/h 87% 0 mm 278.00 W/m2
10:04 1.1 °C -0.8 °C 1029.7 hPa Calm   19.3 km/h 87% 0 mm 366.00 W/m2
10:09 1.1 °C -1.1 °C 1029.7 hPa Calm     85% 0 mm 290.00 W/m2
10:14 1.2 °C -0.8 °C 1029.7 hPa Calm   11.3 km/h 86% 0 mm 279.00 W/m2
10:19 1.3 °C -0.9 °C 1030 hPa ESE 9.7 km/h 17.7 km/h 85% 0 mm 279.00 W/m2
10:24 1.4 °C -0.8 °C 1030 hPa Calm   14.5 km/h 85% 0 mm 334.00 W/m2
10:29 1.5 °C -0.7 °C 1030 hPa Calm     85% 0 mm 239.00 W/m2
10:34 1.6 °C -0.7 °C 1030 hPa Calm     85% 0 mm 244.00 W/m2
10:39 1.7 °C -0.6 °C 1030 hPa Calm     85% 0 mm 287.00 W/m2
10:44 1.7 °C -0.6 °C 1030 hPa Calm     85% 0 mm 299.00 W/m2
10:49 1.8 °C -0.5 °C 1030 hPa Calm     85% 0 mm 283.00 W/m2
10:54 1.8 °C -0.7 °C 1030.4 hPa Calm     83% 0 mm 338.00 W/m2
10:59 1.9 °C -0.6 °C 1030.4 hPa Calm     83% 0 mm 367.00 W/m2
11:04 2 °C -0.9 °C 1030.4 hPa Calm     81% 0 mm 330.00 W/m2
11:09 2.1 °C -1 °C 1030.4 hPa Calm     80% 0 mm 427.00 W/m2
11:14 2.2 °C -0.6 °C 1030.4 hPa Calm     82% 0 mm 533.00 W/m2
11:19 2.4 °C -0.6 °C 1030 hPa Calm     81% 0 mm 390.00 W/m2
11:24 2.6 °C -0.2 °C 1030 hPa ESE 1.6 km/h 1.6 km/h 82% 0 mm 434.00 W/m2
11:29 2.7 °C -0.1 °C 1030 hPa Calm   1.6 km/h 82% 0 mm 417.00 W/m2
11:34 2.7 °C -0.6 °C 1030 hPa Calm   1.6 km/h 79% 0 mm 473.00 W/m2
11:39 2.8 °C -0.3 °C 1030 hPa Calm     80% 0 mm 436.00 W/m2
11:44 2.9 °C 0 °C 1030 hPa Calm     81% 0 mm 366.00 W/m2
11:49 3 °C 0.1 °C 1030 hPa Calm   1.6 km/h 81% 0 mm 406.00 W/m2
11:54 3.1 °C 0 °C 1030 hPa Calm     80% 0 mm 397.00 W/m2
11:59 3.2 °C 0.3 °C 1029.7 hPa Calm     81% 0 mm 341.00 W/m2
12:04 3.3 °C 0 °C 1029.7 hPa Calm     79% 0 mm 383.00 W/m2
12:09 3.3 °C -0.1 °C 1029.7 hPa Calm     78% 0 mm 373.00 W/m2
12:14 3.3 °C 0.1 °C 1029.7 hPa Calm     79% 0 mm 364.00 W/m2
12:19 3.4 °C -0.1 °C 1029.7 hPa Calm     78% 0 mm 371.00 W/m2
12:24 3.5 °C 0.4 °C 1029.3 hPa Calm     80% 0 mm 345.00 W/m2
12:29 3.5 °C 0.6 °C 1029.7 hPa Calm     81% 0 mm 492.00 W/m2
12:34 3.6 °C 1 °C 1029.7 hPa Calm     83% 0 mm 534.00 W/m2
12:39 3.7 °C 0.7 °C 1029.7 hPa Calm     81% 0 mm 510.00 W/m2
12:44 3.7 °C 0.8 °C 1029.7 hPa Calm     81% 0 mm 443.00 W/m2
12:49 3.8 °C 0.8 °C 1029.3 hPa Calm     81% 0 mm 332.00 W/m2
12:54 3.8 °C 0.7 °C 1029.3 hPa Calm     80% 0 mm 471.00 W/m2
13:00 3.8 °C 0.3 °C 1029.3 hPa Calm     78% 0 mm 425.00 W/m2
13:05 3.9 °C 0.7 °C 1029.3 hPa Calm     79% 0 mm 355.00 W/m2
13:10 4 °C 0.9 °C 1029.3 hPa Calm     80% 0 mm 373.00 W/m2
13:11 4.1 °C 0.9 °C 1029.3 hPa Calm     80% 0 mm 323.00 W/m2
13:16 4.1 °C 1.2 °C 1029 hPa Calm     81% 0 mm 295.00 W/m2
13:21 4.2 °C 1.2 °C 1029.3 hPa Calm     81% 0 mm 376.00 W/m2
13:26 4.2 °C 1.2 °C 1029.3 hPa Calm     81% 0 mm 341.00 W/m2
13:31 4.2 °C 1.2 °C 1029.3 hPa Calm     81% 0 mm 265.00 W/m2
13:36 4.2 °C 1.2 °C 1029.3 hPa Calm     81% 0 mm 221.00 W/m2
13:41 4.2 °C 1.2 °C 1029.3 hPa Calm     81% 0 mm 213.00 W/m2
13:46 4.2 °C 1.1 °C 1029.3 hPa Calm     80% 0 mm 197.00 W/m2
13:51 4.2 °C 1.1 °C 1029.3 hPa Calm     80% 0 mm 200.00 W/m2
13:56 4.3 °C 1.1 °C 1029.3 hPa Calm     80% 0 mm 223.00 W/m2
14:01 4.3 °C 1.3 °C 1029.3 hPa Calm     81% 0 mm 211.00 W/m2
14:06 4.2 °C 1.4 °C 1029.3 hPa Calm     82% 0 mm 193.00 W/m2
14:11 4.2 °C 1.4 °C 1029.3 hPa Calm     82% 0 mm 192.00 W/m2
14:16 4.2 °C 1.2 °C 1029.3 hPa Calm     81% 0 mm 188.00 W/m2
14:21 4.2 °C 1.4 °C 1029.3 hPa Calm     82% 0 mm 188.00 W/m2
14:26 4.1 °C 1.5 °C 1029.3 hPa Calm     83% 0 mm 221.00 W/m2
14:31 4.1 °C 1.5 °C 1029.3 hPa Calm     83% 0 mm 244.00 W/m2
14:36 4.1 °C 1.5 °C 1029.3 hPa Calm     83% 0 mm 237.00 W/m2
14:41 4.1 °C 1.3 °C 1029.3 hPa Calm     82% 0 mm 297.00 W/m2
14:46 4.2 °C 1.6 °C 1029.3 hPa Calm     83% 0 mm 306.00 W/m2
14:51 4.2 °C 1.6 °C 1029.7 hPa Calm     83% 0 mm 257.00 W/m2
14:56 4.2 °C 1.4 °C 1029.7 hPa Calm     82% 0 mm 341.00 W/m2
15:01 4.2 °C 1.4 °C 1029.7 hPa Calm     82% 0 mm 359.00 W/m2
15:06 4.3 °C 1.3 °C 1029.7 hPa Calm     81% 0 mm 287.00 W/m2
15:11 4.3 °C 1.5 °C 1029.7 hPa Calm     82% 0 mm 185.00 W/m2
15:16 4.3 °C 1.6 °C 1029.7 hPa Calm     82% 0 mm 250.00 W/m2
15:21 4.3 °C 1.6 °C 1029.7 hPa Calm     82% 0 mm 176.00 W/m2
15:26 4.3 °C 1.7 °C 1029.7 hPa Calm     83% 0 mm 153.00 W/m2
15:31 4.3 °C 1.1 °C 1030 hPa Calm     80% 0 mm 155.00 W/m2
15:36 4.3 °C 1.3 °C 1030 hPa Calm     81% 0 mm 181.00 W/m2
15:41 4.3 °C 1.1 °C 1030 hPa Calm     80% 0 mm 125.00 W/m2
15:46 4.3 °C 1.1 °C 1030 hPa Calm     80% 0 mm 111.00 W/m2
15:51 4.3 °C 1.3 °C 1030 hPa Calm     81% 0 mm 105.00 W/m2
15:56 4.3 °C 1.3 °C 1030 hPa Calm     81% 0 mm 100.00 W/m2
16:01 4.3 °C 1.3 °C 1030 hPa Calm     81% 0 mm 109.00 W/m2
16:06 4.2 °C 1.8 °C 1030 hPa Calm     84% 0 mm 104.00 W/m2
16:11 4.2 °C 1.7 °C 1030 hPa Calm     84% 0 mm 86.00 W/m2
16:16 4.1 °C 1.8 °C 1030 hPa Calm     85% 0 mm 69.00 W/m2
16:21 4.1 °C 1.9 °C 1030 hPa Calm     86% 0 mm 53.00 W/m2
16:26 4 °C 1.9 °C 1030 hPa Calm     86% 0 mm 46.00 W/m2
16:31 3.9 °C 2 °C 1030 hPa Calm     87% 0 mm 42.00 W/m2
16:36 3.8 °C 1.9 °C 1030 hPa Calm     87% 0 mm 39.00 W/m2
16:41 3.8 °C 1.8 °C 1030 hPa Calm     87% 0 mm 33.00 W/m2
16:46 3.7 °C 1.9 °C 1030 hPa Calm     88% 0 mm 28.00 W/m2
16:51 3.6 °C 1.8 °C 1030 hPa Calm     88% 0 mm 21.00 W/m2
16:56 3.5 °C 1.7 °C 1030 hPa Calm     88% 0 mm 16.00 W/m2
17:01 3.4 °C 1.8 °C 1030 hPa Calm   1.6 km/h 89% 0 mm 14.00 W/m2
17:06 3.3 °C 1.7 °C 1030 hPa Calm     89% 0 mm 11.00 W/m2
17:11 3.2 °C 1.6 °C 1030 hPa Calm   1.6 km/h 89% 0 mm 5.00 W/m2
17:16 3.1 °C 1.6 °C 1030 hPa SE 1.6 km/h 1.6 km/h 90% 0 mm 5.00 W/m2
17:21 2.9 °C 1.4 °C 1030 hPa ESE 6.4 km/h 6.4 km/h 90% 0 mm 0.00 W/m2
17:26 2.8 °C 1.3 °C 1030 hPa Calm     90% 0 mm 0.00 W/m2
17:31 2.7 °C 1.2 °C 1030 hPa Calm   1.6 km/h 90% 0 mm 0.00 W/m2
17:36 2.7 °C 1.2 °C 1030 hPa Calm     90% 0 mm 0.00 W/m2
17:42 2.6 °C 1.1 °C 1030 hPa Calm   1.6 km/h 90% 0 mm 0.00 W/m2
17:47 2.6 °C 1.1 °C 1030 hPa Calm   3.2 km/h 90% 0 mm 0.00 W/m2
17:52 2.5 °C 1 °C 1030 hPa Calm   6.4 km/h 90% 0 mm 0.00 W/m2
17:57 2.4 °C 1 °C 1029.7 hPa Calm   3.2 km/h 90% 0 mm 0.00 W/m2
18:02 2.3 °C 0.9 °C 1029.7 hPa East 3.2 km/h 11.3 km/h 90% 0 mm 0.00 W/m2
18:07 2.2 °C 0.6 °C 1029.7 hPa ESE 1.6 km/h 6.4 km/h 89% 0 mm 0.00 W/m2
18:12 2.2 °C 0.7 °C 1029.7 hPa ESE 1.6 km/h 3.2 km/h 90% 0 mm 0.00 W/m2
18:17 2.1 °C 0.6 °C 1030 hPa ESE 1.6 km/h 8 km/h 90% 0 mm 0.00 W/m2
18:22 2 °C 0.6 °C 1030 hPa ESE 1.6 km/h 6.4 km/h 90% 0 mm 0.00 W/m2
18:27 1.9 °C 0.5 °C 1030 hPa Calm     90% 0 mm 0.00 W/m2
18:32 1.8 °C 0.4 °C 1030 hPa East 1.6 km/h 3.2 km/h 90% 0 mm 0.00 W/m2
18:37 1.8 °C 0.3 °C 1030 hPa East 1.6 km/h 3.2 km/h 90% 0 mm 0.00 W/m2
18:42 1.7 °C 0.2 °C 1030 hPa East 1.6 km/h 6.4 km/h 90% 0 mm 0.00 W/m2
18:47 1.6 °C 0.3 °C 1030 hPa East 1.6 km/h 8 km/h 91% 0 mm 0.00 W/m2
18:52 1.6 °C 0.1 °C 1030 hPa Calm   3.2 km/h 90% 0 mm 0.00 W/m2
18:57 1.4 °C 0 °C 1030 hPa East 6.4 km/h 8 km/h 90% 0 mm 0.00 W/m2
19:02 1.4 °C 0.1 °C 1030.4 hPa Calm     91% 0 mm 0.00 W/m2
19:07 1.3 °C 0 °C 1030.4 hPa East 3.2 km/h 12.9 km/h 91% 0 mm 0.00 W/m2
19:12 1.3 °C 0 °C 1030.4 hPa East 1.6 km/h 9.7 km/h 91% 0 mm 0.00 W/m2
19:17 1.3 °C 0 °C 1030.4 hPa Calm   4.8 km/h 91% 0 mm 0.00 W/m2
19:22 1.2 °C -0.1 °C 1030.4 hPa Calm   6.4 km/h 91% 0 mm 0.00 W/m2
19:27 1.2 °C -0.1 °C 1030.4 hPa Calm     91% 0 mm 0.00 W/m2
19:32 1.2 °C -0.1 °C 1030.4 hPa Calm     91% 0 mm 0.00 W/m2
19:37 1.2 °C -0.1 °C 1030.4 hPa Calm     91% 0 mm 0.00 W/m2
19:42 1.1 °C -0.2 °C 1030.4 hPa East 1.6 km/h 4.8 km/h 91% 0 mm 0.00 W/m2
19:47 1.1 °C -0.2 °C 1030.4 hPa Calm     91% 0 mm 0.00 W/m2
19:52 1 °C -0.3 °C 1030.4 hPa Calm   6.4 km/h 91% 0 mm 0.00 W/m2
19:57 1 °C -0.3 °C 1030.4 hPa Calm     91% 0 mm 0.00 W/m2
20:02 1 °C -0.2 °C 1030.7 hPa Calm     92% 0 mm 0.00 W/m2
20:07 1 °C -0.2 °C 1030.7 hPa Calm     92% 0 mm 0.00 W/m2
20:12 0.9 °C -0.2 °C 1030.7 hPa Calm     92% 0 mm 0.00 W/m2
20:17 0.9 °C -0.2 °C 1030.7 hPa Calm     92% 0 mm 0.00 W/m2
20:22 0.9 °C -0.2 °C 1030.7 hPa Calm     92% 0 mm 0.00 W/m2
20:27 0.9 °C -0.2 °C 1030.7 hPa Calm     92% 0 mm 0.00 W/m2
20:32 0.9 °C -0.2 °C 1030.7 hPa Calm     92% 0 mm 0.00 W/m2
20:37 0.9 °C -0.2 °C 1030.7 hPa Calm   6.4 km/h 92% 0 mm 0.00 W/m2
20:42 0.9 °C -0.2 °C 1031 hPa Calm     92% 0 mm 0.00 W/m2
20:47 0.9 °C -0.2 °C 1031 hPa Calm     92% 0 mm 0.00 W/m2
20:52 0.9 °C -0.2 °C 1031 hPa Calm     92% 0 mm 0.00 W/m2
20:57 0.9 °C -0.2 °C 1031 hPa Calm   4.8 km/h 92% 0 mm 0.00 W/m2
21:02 0.9 °C -0.2 °C 1031 hPa Calm   8 km/h 92% 0 mm 0.00 W/m2
21:07 0.9 °C -0.3 °C 1031 hPa East 4.8 km/h 4.8 km/h 92% 0 mm 0.00 W/m2
21:12 0.9 °C -0.3 °C 1031 hPa Calm     92% 0 mm 0.00 W/m2
21:17 0.9 °C -0.3 °C 1031 hPa Calm     92% 0 mm 0.00 W/m2
21:22 0.9 °C -0.3 °C 1031.4 hPa Calm     92% 0 mm 0.00 W/m2
21:27 0.9 °C -0.3 °C 1031.4 hPa East 1.6 km/h 3.2 km/h 92% 0 mm 0.00 W/m2
21:32 0.9 °C -0.3 °C 1031.4 hPa Calm   4.8 km/h 92% 0 mm 0.00 W/m2
21:38 0.9 °C -0.3 °C 1031.4 hPa East 1.6 km/h 6.4 km/h 92% 0 mm 0.00 W/m2
21:42 0.9 °C -0.3 °C 1031.4 hPa Calm     92% 0 mm 0.00 W/m2
21:48 0.9 °C -0.1 °C 1031.4 hPa Calm   6.4 km/h 93% 0 mm 0.00 W/m2
21:53 0.9 °C -0.1 °C 1031.4 hPa Calm   9.7 km/h 93% 0 mm 0.00 W/m2
21:58 0.9 °C -0.1 °C 1031.4 hPa Calm   3.2 km/h 93% 0 mm 0.00 W/m2
22:03 0.9 °C -0.1 °C 1031.7 hPa East 1.6 km/h 12.9 km/h 93% 0 mm 0.00 W/m2
22:08 0.9 °C -0.1 °C 1031.7 hPa East 1.6 km/h 6.4 km/h 93% 0 mm 0.00 W/m2
22:13 0.9 °C -0.1 °C 1031.7 hPa Calm   6.4 km/h 93% 0 mm 0.00 W/m2
22:18 0.9 °C -0.1 °C 1031.7 hPa Calm   8 km/h 93% 0 mm 0.00 W/m2
22:23 1 °C 0 °C 1031.7 hPa Calm   6.4 km/h 93% 0 mm 0.00 W/m2
22:28 1 °C 0 °C 1031.7 hPa East 6.4 km/h 9.7 km/h 93% 0 mm 0.00 W/m2
22:33 1.1 °C 0.1 °C 1031.7 hPa Calm   8 km/h 93% 0 mm 0.00 W/m2
22:38 1.1 °C 0.1 °C 1031.7 hPa Calm     93% 0 mm 0.00 W/m2
22:43 1.1 °C 0.1 °C 1032.1 hPa East 6.4 km/h 6.4 km/h 93% 0 mm 0.00 W/m2
22:48 1.1 °C 0.1 °C 1032.1 hPa Calm     93% 0 mm 0.00 W/m2
22:53 1.1 °C 0.1 °C 1032.1 hPa Calm     93% 0 mm 0.00 W/m2
22:58 1.1 °C 0.1 °C 1032.1 hPa East 3.2 km/h 8 km/h 93% 0 mm 0.00 W/m2
23:03 1.2 °C 0 °C 1032.1 hPa East 1.6 km/h 8 km/h 92% 0 mm 0.00 W/m2
23:08 1.1 °C -0.1 °C 1032.1 hPa Calm   8 km/h 92% 0 mm 0.00 W/m2
23:13 1.1 °C -0.1 °C 1032.1 hPa Calm   6.4 km/h 92% 0 mm 0.00 W/m2
23:18 1.1 °C -0.1 °C 1032.1 hPa Calm   9.7 km/h 92% 0 mm 0.00 W/m2
23:23 1.1 °C -0.1 °C 1032.1 hPa Calm     92% 0 mm 0.00 W/m2
23:28 1.1 °C -0.1 °C 1032.1 hPa Calm   9.7 km/h 92% 0 mm 0.00 W/m2
23:33 1.2 °C 0 °C 1032.1 hPa Calm   8 km/h 92% 0 mm 0.00 W/m2
23:38 1.1 °C -0.1 °C 1032.1 hPa Calm   8 km/h 92% 0 mm 0.00 W/m2
23:43 1.1 °C -0.1 °C 1032.1 hPa Calm   9.7 km/h 92% 0 mm 0.00 W/m2
23:48 1.1 °C -0.1 °C 1032.1 hPa Calm   9.7 km/h 92% 0 mm 0.00 W/m2
23:53 1.1 °C -0.1 °C 1032.1 hPa East 3.2 km/h 9.7 km/h 92% 0 mm 0.00 W/m2
23:58 1.1 °C -0.1 °C 1032.1 hPa East 6.4 km/h 8 km/h 92% 0 mm 0.00 W/m2
Foresthill Weather
 WU-history PHP script courtesy of   Juneau County Weather.
powered by Cumulus v1.9.3 (1059)
Ambient Weather VWS v14.00
Top Contact Website Map Copyright © 2007 - 2018 Foresthillweather.com Never base important decisions on this or any weather information obtained from the Internet